291  
ASUS41 KPHI 181312  
RWRPHI  
 
REGIONAL WEATHER ROUNDUP  
NATIONAL WEATHER SERVICE MOUNT HOLLY NJ  
900 AM EDT MON OCT 18 2021  
 
NOTE: "FAIR" INDICATES FEW OR NO CLOUDS BELOW 12,000 FEET WITH NO  
SIGNIFICANT WEATHER AND/OR S TO VISIBILITY
.  
 
* = STATION DOES NOT REPORT PRECIPITATION (E.G. RAIN, SNOW, ETC.)  
OR FOG.
 
 
NJZ015>026-181400-  
SOUTHERN NEW JERSEY  
 
CITY SKY/WX TMP DP RH WIND PRES REMARKS
 
POMONA MOSUNNY 54 45 71 W14 29.92S  
WILDWOOD* N/A 60 45 57 W16G26 29.95R  
MILLVILLE SUNNY 56 44 64 W12 29.94S  
WRIGHTSTOWN MOSUNNY 51 42 72 W12 29.90R  
MOUNT HOLLY CLOUDY 54 42 64 W7 29.91R  
TRENTON PTSUNNY 49 42 77 W6 29.89S  
 

 
NJZ001>014-181400-  
NORTHERN NEW JERSEY  
 
CITY SKY/WX TMP DP RH WIND PRES REMARKS
 
SUSSEX SUNNY 48 45 89 S6 29.86R  
ANDOVER* N/A 50 44 80 CALM 29.86S  
MORRISTOWN MOSUNNY 50 45 81 W7 29.86S  
NEWARK PTSUNNY 52 43 71 W12 29.86R  
TETERBORO CLOUDY 50 42 74 VRB6 29.84S  
CALDWELL PTSUNNY 50 42 74 VRB3 29.86S  
SOMERVILLE SUNNY 49 46 90 MISG 29.87R  
ALLAIRE* MOSUNNY 52 44 74 W13G20 29.89S  
TOMS RIVER* N/A 51 43 74 W13 29.90S  
 

 
PAZ043-044-047-054-055-060>062-066>071-181400-  
EASTERN PENNSYLVANIA  
 
CITY SKY/WX TMP DP RH WIND PRES REMARKS
 
PHILADELPHIA MOSUNNY 53 44 71 W14 29.93R  
NORTH PHILA MOSUNNY 51 41 68 W7 29.92S  
BLUE BELL* SUNNY 52 43 71 W6 29.92R  
DOYLESTOWN SUNNY 47 41 80 S5 29.89S  
QUAKERTOWN* SUNNY 54 43 66 W8G16 29.91R  
PERKASIE* FAIR 50 43 76 W9 29.91R  
POTTSTOWN SUNNY 50 42 74 VRB6 29.93R  
LANCASTER SUNNY 52 41 66 W10 29.95R  
COATESVILLE SUNNY 52 43 71 W8G15 29.95R  
WEST CHESTER FAIR 50 43 76 SW6 29.94R  
READING SUNNY 54 43 66 W9 29.91R  
ALLENTOWN SUNNY 51 42 71 W10 29.90R  
QN CITY/ALNTWN FAIR 52 43 71 W13 29.92R  
MOUNT POCONO PTSUNNY 43 42 97 W16 29.85S  
HAZLETON CLOUDY 46 41 81 W7 29.92S  
LEHIGHTON FAIR 50 41 71 W5 29.92R  
WILKES BARRE CLOUDY 48 42 80 SW10 29.89R  
 

 
DEZALL-MDZ008-012-015-019-020-181400-  
DELAWARE AND EASTERN MARYLAND  
 
CITY SKY/WX TMP DP RH WIND PRES REMARKS
 
WILMINGTON SUNNY 52 42 69 W9 29.95R  
DOVER SUNNY 56 42 60 W13 29.95R  
CHESWOLD SUNNY 57 45 62 W9 29.97R  
GEORGETOWN MOSUNNY 55 46 71 W7 29.97S  
EASTON SUNNY 61 45 55 W13G18 30.03R  
ABERDEEN SUNNY 51 44 79 W8 29.96R  
PATUXENT SUNNY 59 44 57 W14 30.02R  
OCEAN CITY SUNNY 58 46 64 W13 29.98S  
WALLOPS ISLAND SUNNY 60 47 61 W10G18 30.00S  
CAMBRIDGE SUNNY 59 45 58 W9G17 30.00S  
SALISBURY SUNNY 57 48 72 W9 29.99R  
 

 
PAZ001-021-NYZ056-072-MDZ011-DCZ001-181400-  
OTHER NEARBY LOCATIONS  
 
CITY SKY/WX TMP DP RH WIND PRES REMARKS
 
HARRISBURG SUNNY 55 41 59 NW7 29.94S  
STATE COLLEGE PTSUNNY 48 41 76 W9 29.98R  
WILLIAMSPORT CLOUDY 50 43 77 W7 29.93R  
BINGHAMTON CLOUDY 44 41 89 NW8G18 29.84R  
NEW YORK CITY CLOUDY 52 43 71 VRB3 29.88R  
BALTIMORE MOSUNNY 54 42 64 W7 29.99R  
WASHINGTON DC SUNNY 56 39 53 W12 30.03R  
 

 
 
 
CLICK HERE TO GO TO PREVIOUS BULLETINS.

The Nexlab PA Page
The Nexlab NJ Page
The Nexlab DE Page
The Nexlab MD Page Main Text Page